WXPETECO Weather Reports


time (UTC)temp
C
wind
direction
speed
KPH
gust
KPH
rain 1hr
cm
rain 24hr
cm
rain mn
cm
humidity
%
barometer
mb
20260504203044 10 132 1.6 8.0 0.03 0.08 0.08 56 1005.7
20260504201546 9 13 1.6 8.0 0.05 0.08 0.08 64 1005.5
20260504200050 8 286 0.0 1.6 0.08 0.08 0.08 75 1005.7
20260504194538 8 300 3.2 11.3 0.08 0.08 0.08 79 1006.0
20260504193041 9 252 0.0 0.0 0.05 0.05 0.05 73 1006.1
20260504191537 9 252 0.0 3.2 0.03 0.03 0.03 68 1006.2
20260504190034 10 227 0.0 4.8 0.00 0.00 0.00 58 1006.0
20260504184537 9 228 0.0 1.6 0.00 0.00 0.00 62 1006.0
20260504183036 10 306 1.6 9.7 0.00 0.00 0.00 59 1006.2
20260504181531 11 303 6.4 32.2 0.00 0.00 0.00 43 1006.7
20260504180028 13 284 8.0 24.1 0.00 0.00 0.00 37 1006.2
20260504174527 13 265 4.8 12.9 0.00 0.00 0.00 37 1006.1
20260504173025 12 223 3.2 19.3 0.00 0.00 0.00 37 1006.3
20260504171523 12 246 1.6 20.9 0.00 0.00 0.00 38 1006.5
20260504081503 2 313 0.0 4.8 0.00 0.00 0.00 43 1008.0
20260504044537 5 319 0.0 3.2 0.00 0.00 0.00 40 1009.2
20260504043049 5 34 0.0 1.6 0.00 0.00 0.00 40 1009.2
20260504041537 6 318 0.0 3.2 0.00 0.00 0.00 40 1009.1
20260504040039 6 315 0.0 1.6 0.00 0.00 0.00 40 1009.0
20260504034545 6 314 0.0 3.2 0.00 0.00 0.00 40 1008.9
20260504033035 7 312 1.6 4.8 0.00 0.00 0.00 40 1008.9
20260504031544 7 311 0.0 3.2 0.00 0.00 0.00 39 1008.8
20260504030041 8 311 0.0 1.6 0.00 0.00 0.00 39 1008.8
20260504024536 9 311 0.0 0.0 0.00 0.00 0.00 38 1008.5
20260504023033 10 311 0.0 3.2 0.00 0.00 0.00 36 1008.4
20260504021541 11 302 0.0 6.4 0.00 0.00 0.00 35 1008.3
20260504020037 12 214 0.0 0.0 0.00 0.00 0.00 34 1008.2
20260504014532 12 214 0.0 0.0 0.00 0.00 0.00 32 1008.0
20260504013035 12 214 0.0 4.8 0.00 0.00 0.00 31 1008.0
20260504011530 12 302 0.0 3.2 0.00 0.00 0.00 32 1008.2
20260504010029 12 179 3.2 9.7 0.00 0.00 0.00 31 1008.1
20260504004539 12 262 6.4 17.7 0.00 0.00 0.00 31 1008.4
20260504003028 13 305 8.0 22.5 0.00 0.00 0.00 30 1008.4
20260504001533 13 307 6.4 32.2 0.00 0.00 0.00 31 1008.7
20260504000026 14 315 4.8 29.0 0.00 0.00 0.00 30 1008.7
20260503234527 15 248 3.2 14.5 0.00 0.00 0.00 26 1008.5
20260503233025 15 317 3.2 19.3 0.00 0.00 0.00 21 1008.2
20260503231524 15 247 3.2 11.3 0.00 0.00 0.00 23 1008.3
20260503230023 15 123 0.0 6.4 0.00 0.00 0.00 24 1008.2
20260503224522 14 217 1.6 9.7 0.00 0.00 0.00 26 1008.6
20260503223021 15 296 8.0 19.3 0.00 0.00 0.00 25 1008.6
20260503221519 15 302 4.8 20.9 0.00 0.00 0.00 21 1008.3
20260503220029 15 306 8.0 19.3 0.00 0.00 0.00 19 1008.6
20260503214529 16 191 4.8 14.5 0.00 0.00 0.00 19 1008.6
20260503213028 15 277 8.0 20.9 0.00 0.00 0.00 19 1008.8
20260503211516 16 338 12.9 27.4 0.00 0.00 0.00 18 1008.9
20260503210017 16 149 6.4 17.7 0.00 0.00 0.00 17 1008.9
20260503204521 16 244 3.2 22.5 0.00 0.00 0.00 20 1009.3